Location: Madrid
(40.4000°N, 3.6830°W)
Time: 00:24:34
(UTC+02:00)

ISS - Pass Details

Date: 16 July 2019
Orbit: 409 x 418 km, 51.6° (Epoch: 22 July)

Event Time Altitude Azimuth Distance (km) Brightness Sun altitude
Rises 03:04:54 0° 302° (WNW) 2,348 0.3 -27.3°
Reaches altitude 10° 03:08:07 10° 335° (NNW) 1,483 -0.3 -27.2°
Maximum altitude 03:09:28 12° 359° (N) 1,370 -0.3 -27.1°
Drops below altitude 10° 03:10:49 10° 23° (NNE) 1,482 0.0 -27.1°
Sets 03:14:01 0° 57° (ENE) 2,342 0.7 -26.9°
